^^
Grace C. Lehan Memorial Weather Station Historical Data
Daily Summary for July 16, 2021 Units:  Metric    English   Both
Daily Weekly Monthly Yearly
  High: Low: Average:
Temperature: 1 °C -0.2 °C 0.3 °C
Dew Point: 0.3 °C -1.1 °C -0.5 °C
Humidity: 95% 94% 95%
Wind Speed: 3.4km/h 0km/h 0.8km/h
Wind Gust: 8km/h - -
Wind- - SSE
Pressure: 1016.5 hPa 1007 hPa -
Precipitation: 2.29 mm    
 
 
Tabular Data for July 16, 2021
Time Temperature Dew Point Pressure Wind Wind Speed Wind Gust Humidity Rainfall Rate (Hourly) solar
00:04 -0.2 °C -1.1 °C 1016.5 hPa NE 0.5 km/h 6.4 km/h 94% 0 mm 0 W/m2
00:09 -0.2 °C -1 °C 1016.5 hPa NE 0.6 km/h 4.8 km/h 94% 0 mm 0 W/m2
00:14 -0.2 °C -1 °C 1016.1 hPa NNE 1.1 km/h 8 km/h 94% 0 mm 0 W/m2
00:19 -0.2 °C -1 °C 1015.8 hPa NNE 1.3 km/h 8 km/h 94% 0 mm 0 W/m2
00:24 -0.1 °C -0.9 °C 1015.8 hPa NNE 1.6 km/h 8 km/h 94% 0 mm 0 W/m2
00:29 -0.1 °C -0.9 °C 1015.8 hPa NNE 0.5 km/h 8 km/h 94% 0 mm 0 W/m2
00:34 -0.1 °C -1 °C 1015.8 hPa Calm   8 km/h 94% 0 mm 0 W/m2
00:39 -0.2 °C -1 °C 1015.8 hPa Calm     94% 0 mm 0 W/m2
00:44 -0.2 °C -1 °C 1015.5 hPa Calm     94% 0 mm 0 W/m2
00:49 -0.2 °C -1 °C 1015.5 hPa Calm     94% 0 mm 0 W/m2
00:54 -0.2 °C -1 °C 1015.5 hPa Calm     94% 0 mm 0 W/m2
00:59 -0.1 °C -1 °C 1015.5 hPa NNE 0.2 km/h 4.8 km/h 94% 0 mm 0 W/m2
01:04 -0.1 °C -0.9 °C 1015.5 hPa Calm   4.8 km/h 94% 0 mm 0 W/m2
01:09 -0.1 °C -0.9 °C 1015.1 hPa NNE 0.3 km/h 4.8 km/h 94% 0 mm 0 W/m2
01:14 -0.1 °C -0.9 °C 1015.1 hPa NNE 0.3 km/h 4.8 km/h 94% 0 mm 0 W/m2
01:19 -0.1 °C -0.9 °C 1014.4 hPa NNE 0.2 km/h 4.8 km/h 94% 0 mm 0 W/m2
01:24 -0.1 °C -0.9 °C 1014.4 hPa NNE 1.6 km/h 6.4 km/h 94% 0 mm 0 W/m2
01:29 0 °C -0.8 °C 1014.1 hPa NE 1 km/h 6.4 km/h 94% 0 mm 0 W/m2
01:34 0 °C -0.8 °C 1014.1 hPa NE 0.6 km/h 6.4 km/h 94% 0 mm 0 W/m2
01:39 0 °C -0.8 °C 1014.1 hPa Calm   4.8 km/h 94% 0 mm 0 W/m2
01:44 0 °C -0.8 °C 1014.1 hPa NE 1.1 km/h 4.8 km/h 94.5% 0 mm 0 W/m2
01:49 0 °C -0.7 °C 1013.8 hPa NNE 0.5 km/h 4.8 km/h 95% 0 mm 0 W/m2
01:54 0.1 °C -0.7 °C 1013.8 hPa NNE 0.8 km/h 6.4 km/h 94.9% 0 mm 0 W/m2
01:59 0.1 °C -0.8 °C 1013.4 hPa NNE 0.2 km/h 6.4 km/h 94.2% 0 mm 0 W/m2
02:04 0.1 °C -0.8 °C 1013.4 hPa NNE 0.5 km/h 6.4 km/h 94.1% 0 mm 0 W/m2
02:09 0.1 °C -0.7 °C 1013.1 hPa NNE 1.1 km/h 4.8 km/h 94.6% 0 mm 0 W/m2
02:14 0.1 °C -0.7 °C 1013.1 hPa Calm   4.8 km/h 95% 0 mm 0 W/m2
02:19 0.1 °C -0.6 °C 1012.8 hPa NNE 1.9 km/h 8 km/h 95% 0 mm 0 W/m2
02:24 0.1 °C -0.6 °C 1012.4 hPa NNE 2.7 km/h 8 km/h 95% 0 mm 0 W/m2
02:29 0.2 °C -0.6 °C 1011.7 hPa NNE 1.4 km/h 8 km/h 95% 0 mm 0 W/m2
02:34 0.2 °C -0.6 °C 1011.4 hPa Calm   8 km/h 95% 0 mm 0 W/m2
02:39 0.2 °C -0.5 °C 1011.4 hPa NNE 0.6 km/h 4.8 km/h 95% 0 mm 0 W/m2
02:44 0.3 °C -0.4 °C 1011.4 hPa NNW 1.1 km/h 8 km/h 95% 0 mm 0 W/m2
02:49 0.3 °C -0.4 °C 1011.4 hPa NNW 3.1 km/h 8 km/h 95% 0 mm 0 W/m2
02:54 0.3 °C -0.4 °C 1011.4 hPa NNW 3.4 km/h 8 km/h 95% 0 mm 0 W/m2
02:59 0.3 °C -0.4 °C 1011.1 hPa Calm   8 km/h 95% 0 mm 0 W/m2
03:04 0.3 °C -0.3 °C 1010.7 hPa North 2.6 km/h 8 km/h 95% 0 mm 0 W/m2
03:09 0.4 °C -0.3 °C 1010.7 hPa NNW 0.2 km/h 8 km/h 95% 0 mm 0 W/m2
03:14 0.4 °C -0.3 °C 1010.4 hPa Calm   8 km/h 95% 0 mm 0 W/m2
03:19 0.4 °C -0.2 °C 1010 hPa NNW 0.3 km/h 8 km/h 95% 0 mm 0 W/m2
03:24 0.5 °C -0.2 °C 1010 hPa Calm   8 km/h 95% 0 mm 0 W/m2
03:29 0.6 °C -0.2 °C 1010 hPa Calm   8 km/h 95% 0 mm 0 W/m2
03:34 0.6 °C -0.1 °C 1009.7 hPa Calm   8 km/h 95% 0 mm 0 W/m2
03:39 0.6 °C -0.1 °C 1009 hPa Calm   1.6 km/h 95% 0 mm 0 W/m2
03:44 0.7 °C -0.1 °C 1009 hPa NNW 1.6 km/h 4.8 km/h 95% 0 mm 0 W/m2
03:49 0.7 °C -0.1 °C 1009 hPa NNW 1.8 km/h 8 km/h 95% 0 mm 0 W/m2
03:54 0.7 °C 0 °C 1009 hPa NNW 1.9 km/h 8 km/h 95% 0 mm 0 W/m2
03:59 0.7 °C 0 °C 1008.7 hPa NNW 2.4 km/h 8 km/h 95% 0 mm 0 W/m2
04:04 0.8 °C 0.1 °C 1008.4 hPa NNW 2.7 km/h 3.2 km/h 95% 0 mm 0 W/m2
04:09 0.8 °C 0.1 °C 1008.7 hPa NNW 1.6 km/h 6.4 km/h 95% 0 mm 0 W/m2
04:14 0.8 °C 0.1 °C 1008.4 hPa NNW 0.5 km/h 6.4 km/h 95% 0 mm 0 W/m2
04:19 0.8 °C 0.1 °C 1008 hPa Calm   6.4 km/h 95% 0 mm 0 W/m2
04:24 0.8 °C 0.1 °C 1008 hPa Calm   6.4 km/h 95% 0 mm 0 W/m2
04:29 0.8 °C 0.2 °C 1008 hPa Calm   6.4 km/h 95% 0 mm 0 W/m2
04:34 0.9 °C 0.2 °C 1008 hPa NNW 0.3 km/h 6.4 km/h 95% 0 mm 0 W/m2
04:39 0.9 °C 0.2 °C 1008 hPa NNW 0.5 km/h 6.4 km/h 95% 0 mm 0 W/m2
04:44 0.9 °C 0.2 °C 1007.7 hPa Calm   6.4 km/h 95% 0 mm 0 W/m2
04:49 0.9 °C 0.2 °C 1007.3 hPa NNW 0.2 km/h 6.4 km/h 95% 1.27 mm 0 W/m2
04:54 0.9 °C 0.2 °C 1007.3 hPa NNW 0.3 km/h 6.4 km/h 95% 1.52 mm 0 W/m2
04:58 1 °C 0.3 °C 1007 hPa Calm   6.4 km/h 95% 2.29 mm 0 W/m2
Hartford County Weather
Compliments of Weather Underground - 4 mb